User: anonymous   Login
Location: Fort Wayne
(41.1310°N, 85.1290°W)
Time: 20:18:16
(UTC-04:00)
Language:

Gbstr 26 Del rocket - Orbit

View from above orbital plane
View from above orbital plane
View from above satellite
View from above satellite

Ground track
Ground track

The orbit data is extracted from the following two-line orbital elements,

1 25876U 99041E   15187.52911526  .00000385  00000-0  10827-3 0  9991
2 25876 051.7630 243.3280 0535567 114.8310 250.9284 14.03343595814665
Epoch (UTC): 06 July 2015 12:41:55
Eccentricity: 0.0535567
inclination: 51.7630°
perigee height: 493 km
apogee height: 1271 km
right ascension of ascending node: 243.3280°
argument of perigee: 114.8310°
revolutions per day: 14.03343595
mean anomaly at epoch: 250.9284°
orbit number at epoch: 81466

The dashed part of the orbit path shows where the satellite is in the earth's shadow,  

DLR